TimeEDT,TemperatureF,Dew PointF,Humidity,Sea Level PressureIn,VisibilityMPH,Wind Direction,Wind SpeedMPH,Gust SpeedMPH,PrecipitationIn,Events,Conditions,WindDirDegrees,DateUTC
12:53 AM,71.1,64.9,81,29.87,10.0,Calm,Calm,-,N/A,,Overcast,0,2013-09-21 04:53:00
1:53 AM,73.0,64.0,73,29.85,10.0,Calm,Calm,-,N/A,,Overcast,0,2013-09-21 05:53:00
2:53 AM,72.0,64.9,78,29.82,10.0,Calm,Calm,-,N/A,,Mostly Cloudy,0,2013-09-21 06:53:00
3:53 AM,71.1,66.0,84,29.78,10.0,Calm,Calm,-,0.00,Rain,Light Rain,0,2013-09-21 07:53:00
4:53 AM,69.1,66.9,93,29.76,9.0,Calm,Calm,-,0.00,Rain,Light Rain,0,2013-09-21 08:53:00
5:53 AM,69.1,66.9,93,29.75,8.0,Calm,Calm,-,0.01,Rain,Light Rain,0,2013-09-21 09:53:00
6:53 AM,68.0,66.9,96,29.75,3.0,Calm,Calm,-,0.04,Rain,Rain,0,2013-09-21 10:53:00
7:01 AM,68.0,66.2,94,29.79,2.0,Calm,Calm,-,0.03,Rain,Rain,0,2013-09-21 11:01:00
7:11 AM,68.0,66.2,94,29.80,1.8,West,4.6,-,0.07,Rain,Heavy Rain,260,2013-09-21 11:11:00
7:29 AM,68.0,66.2,94,29.79,1.8,Calm,Calm,-,0.25,Rain,Rain,0,2013-09-21 11:29:00
7:33 AM,68.0,66.2,94,29.79,2.0,Variable,5.8,-,0.26,Rain,Rain,0,2013-09-21 11:33:00
7:53 AM,68.0,66.9,96,29.76,2.5,Variable,3.5,-,0.33,Rain,Rain,0,2013-09-21 11:53:00
8:17 AM,68.0,66.2,94,29.79,0.8,Variable,3.5,-,0.10,Rain,Heavy Rain,0,2013-09-21 12:17:00
8:32 AM,68.0,66.2,94,29.79,1.0,SW,4.6,-,0.19,Rain,Heavy Rain,230,2013-09-21 12:32:00
8:38 AM,68.0,66.2,94,29.79,0.8,Variable,4.6,-,0.23,Rain,Heavy Rain,0,2013-09-21 12:38:00
8:53 AM,66.9,66.9,100,29.78,0.2,Variable,4.6,20.7,0.52,Fog-Rain,Heavy Rain,0,2013-09-21 12:53:00
9:05 AM,66.2,66.2,100,29.81,0.5,WSW,5.8,18.4,0.18,Fog-Rain,Heavy Rain,250,2013-09-21 13:05:00
9:19 AM,66.2,66.2,100,29.81,0.8,WSW,5.8,-,0.33,Rain,Heavy Rain,250,2013-09-21 13:19:00
9:53 AM,66.9,66.0,97,29.79,1.0,Calm,Calm,-,0.65,Rain,Heavy Rain,0,2013-09-21 13:53:00
10:12 AM,66.2,66.2,100,29.82,2.0,SE,4.6,-,0.11,Rain,Rain,140,2013-09-21 14:12:00
10:20 AM,66.2,66.2,100,29.82,1.5,ESE,3.5,-,0.17,Rain,Heavy Rain,120,2013-09-21 14:20:00
10:50 AM,66.2,64.4,94,29.83,2.5,Calm,Calm,-,0.35,Rain,Heavy Rain,0,2013-09-21 14:50:00
10:53 AM,66.0,64.9,96,29.80,2.5,East,3.5,-,0.36,Rain,Heavy Rain,80,2013-09-21 14:53:00
11:05 AM,66.2,64.4,94,29.84,2.0,Calm,Calm,-,0.07,Rain,Rain,0,2013-09-21 15:05:00
11:15 AM,66.2,64.4,94,29.83,2.5,East,4.6,-,0.12,Rain,Rain,90,2013-09-21 15:15:00
11:23 AM,66.2,64.4,94,29.83,5.0,East,3.5,-,0.13,Rain,Rain,100,2013-09-21 15:23:00
11:30 AM,66.2,64.4,94,29.83,5.0,ESE,3.5,-,0.15,Rain,Rain,120,2013-09-21 15:30:00
11:53 AM,66.0,64.9,96,29.81,1.8,Calm,Calm,-,0.23,Rain,Heavy Rain,0,2013-09-21 15:53:00
12:03 PM,66.2,64.4,94,29.84,2.5,Calm,Calm,-,0.04,Rain,Rain,0,2013-09-21 16:03:00
12:10 PM,64.4,64.4,100,29.84,3.0,East,3.5,-,0.06,Rain,Rain,100,2013-09-21 16:10:00
12:53 PM,64.9,63.0,93,29.80,5.0,East,4.6,-,0.13,Rain,Light Rain,80,2013-09-21 16:53:00
1:27 PM,64.4,62.6,94,29.83,10.0,ESE,5.8,-,0.01,,Overcast,110,2013-09-21 17:27:00
1:53 PM,66.0,64.0,93,29.79,10.0,Variable,3.5,-,0.01,,Mostly Cloudy,0,2013-09-21 17:53:00
2:16 PM,66.2,64.4,94,29.82,10.0,Calm,Calm,-,N/A,,Mostly Cloudy,0,2013-09-21 18:16:00
2:27 PM,66.2,64.4,94,29.82,10.0,Calm,Calm,-,N/A,,Mostly Cloudy,0,2013-09-21 18:27:00
2:34 PM,66.2,62.6,88,29.81,10.0,ESE,3.5,-,N/A,,Mostly Cloudy,120,2013-09-21 18:34:00
2:46 PM,66.2,62.6,88,29.81,10.0,Calm,Calm,-,N/A,,Mostly Cloudy,0,2013-09-21 18:46:00
2:53 PM,66.9,64.0,90,29.78,10.0,Calm,Calm,-,N/A,,Mostly Cloudy,0,2013-09-21 18:53:00
3:05 PM,68.0,64.4,88,29.81,10.0,Calm,Calm,-,N/A,,Mostly Cloudy,0,2013-09-21 19:05:00
3:16 PM,68.0,62.6,83,29.80,10.0,Calm,Calm,-,N/A,,Overcast,0,2013-09-21 19:16:00
3:27 PM,68.0,62.6,83,29.80,10.0,Calm,Calm,-,N/A,,Overcast,0,2013-09-21 19:27:00
3:41 PM,68.0,62.6,83,29.80,10.0,Calm,Calm,-,N/A,,Overcast,0,2013-09-21 19:41:00
3:53 PM,69.1,62.1,78,29.77,10.0,Calm,Calm,-,N/A,,Overcast,0,2013-09-21 19:53:00
4:18 PM,69.8,62.6,78,29.80,10.0,Calm,Calm,-,N/A,,Overcast,0,2013-09-21 20:18:00
4:48 PM,69.8,62.6,78,29.79,10.0,Calm,Calm,-,N/A,,Overcast,0,2013-09-21 20:48:00
4:53 PM,70.0,63.0,78,29.76,10.0,Calm,Calm,-,N/A,,Overcast,0,2013-09-21 20:53:00
5:21 PM,68.0,62.6,83,29.80,10.0,West,3.5,-,N/A,,Overcast,280,2013-09-21 21:21:00
5:47 PM,68.0,64.4,88,29.80,6.0,Calm,Calm,-,0.00,Rain,Light Rain,0,2013-09-21 21:47:00
5:53 PM,66.9,64.9,93,29.77,2.5,Calm,Calm,-,0.00,Rain,Light Rain,0,2013-09-21 21:53:00
6:04 PM,66.2,64.4,94,29.80,7.0,Calm,Calm,-,0.01,,Overcast,0,2013-09-21 22:04:00
6:11 PM,66.2,64.4,94,29.80,10.0,Calm,Calm,-,0.01,,Overcast,0,2013-09-21 22:11:00
6:50 PM,66.2,64.4,94,29.81,4.0,Calm,Calm,-,0.01,Rain,Light Rain,0,2013-09-21 22:50:00
6:53 PM,66.9,64.9,93,29.79,1.8,Variable,3.5,-,0.01,Rain,Heavy Rain,0,2013-09-21 22:53:00
7:06 PM,64.4,62.6,94,29.81,1.8,Variable,5.8,-,0.04,Rain,Light Rain,0,2013-09-21 23:06:00
7:15 PM,64.4,62.6,94,29.82,3.0,Variable,4.6,-,0.05,Rain,Light Rain,0,2013-09-21 23:15:00
7:28 PM,64.4,60.8,88,29.82,8.0,Calm,Calm,-,0.05,,Overcast,0,2013-09-21 23:28:00
7:53 PM,64.0,61.0,90,29.79,10.0,Calm,Calm,-,0.05,,Overcast,0,2013-09-21 23:53:00
8:53 PM,64.9,60.1,84,29.81,10.0,Calm,Calm,-,N/A,,Overcast,0,2013-09-22 00:53:00
9:53 PM,63.0,59.0,87,29.83,10.0,Calm,Calm,-,N/A,,Mostly Cloudy,0,2013-09-22 01:53:00
10:53 PM,61.0,59.0,93,29.84,10.0,Calm,Calm,-,N/A,,Overcast,0,2013-09-22 02:53:00
11:53 PM,60.1,57.9,93,29.84,10.0,Calm,Calm,-,N/A,,Mostly Cloudy,0,2013-09-22 03:53:00